Location: Roland
(31.1349°N, 85.4372°W)
Time: 21:00:29
(UTC+00:00)

Tiros 1 - Pass Details

Date: 23 April 2021
Orbit: 630 x 664 km, 48.4° (Epoch: 05 May)

Event Time Altitude Azimuth Distance (km) Brightness Sun altitude
Rises 14:09:01 0° 266° (W) 2,943 10.1 38.3°
Reaches altitude 10° 14:11:49 10° 282° (WNW) 2,029 9.3 38.9°
Maximum altitude 14:15:26 22° 333° (NNW) 1,399 8.8 39.6°
Drops below altitude 10° 14:19:03 10° 24° (NNE) 2,018 10.0 40.4°
Sets 14:21:50 0° 40° (NE) 2,923 10.8 41.0°
